Weather in O-Shynaa

Russia / Tyva Republic     50°39′24″N   93°44′38″E
temp.,
°C
wind,
m/s
gust,
m/s
humid.,
%
clouds,
%
prec.,
mm/h
press.,
hPa
HPBL,
m
5 march, fri
fri501:00−17ne12710 0.0 103220
04:00−17ne22700 0.0 103120
07:00−17ne227414 0.0 103120
10:00−13ese227618 0.0 102995
13:00−11s217359 0.0 1028190
16:00−11w128582 0.0 1025156
19:00−14nw227391 0.0 102821
22:00−16nw1288100 0.1 103120
6 march, sat
sat601:00−17nne128463 0.1 103420
04:00−18ne117910 0.0 103420
07:00−17nne117810 0.0 103520
10:00−13ene11794 0.0 103483
13:00−11ssw11827 0.0 1031178
16:00−11wsw108657 0.0 1028167
19:00−15n228029 0.0 102820
22:00−16n11750 0.0 102820
7 march, sun
sun701:00−17nne117813 0.0 102720
04:00−18ne118037 0.0 102620
07:00−18nne118219 0.0 102820
10:00−14ese01843 0.0 102759
13:00−12s108547 0.0 1026183
16:00−11sw108496 0.0 1025174
19:00−15n128498 0.0 102721
22:00−16n1181100 0.0 102920
8 march, mon
mon801:00−18n118494 0.0 103020
04:00−18n118221 0.0 103020
07:00−18n117911 0.0 103220
10:00−13sse11800 0.0 103056
13:00−12ssw11867 0.0 1028158
16:00−11sw11870 0.0 1026141
19:00−15n129515 0.0 102721
22:00−16n11878 0.0 102720
9 march, tue
tue901:00−17nne118517 0.0 102620
04:00−17nnw11850 0.0 102720
07:00−16wnw118450 0.0 102920
10:00−13s1187100 0.0 103064
13:00−11sw119295 0.0 1029130
16:00−10sw119383 0.0 1028147
19:00−14n118956 0.0 102921
22:00−15ne11827 0.0 103021